Regional Weather Roundup
Issued by NWS Grand Forks, ND

Home | Current Version | Previous Version | Graphics & Text | Print | Product List | Glossary On
Versions: 1 2 3 4 5 6 7 8 9 10 11 12 13 14 15 16 17 18 19 20 21 22 23 24 25 26 27 28 29 30 31 32 33 34 35 36 37 38 39 40 41 42 43 44 45 46 47 48 49 50
000
ASUS43 KFGF 300631
RWRFGF
PRAIRIE TO PINES  WEATHER ROUNDUP
NATIONAL WEATHER SERVICE EASTERN NORTH DAKOTA/GRAND FORKS ND
100 AM CDT TUE JUN 30 2015

 **SATELLITE DATA USED TO AUGMENT SKY COVER AT AUTOMATED STATIONS**
 *****  WEATHER ACROSS EASTERN NORTH DAKOTA  *****

CITY           SKY/WX    TMP DP  RH WIND       PRES   REMARKS
GRAND FORKS    PTCLDY    58  57  97 W6        29.93R
6HR MIN TEMP:  57; 6HR MAX TEMP:  73;

GRAND FRKS AFB CLEAR     60  58  92 N6        29.94R
GRAND FRKS NWS   N/A     59 N/A N/A N2          N/A
DEVILS LAKE    CLOUDY    63  57  82 E3        29.97R
6HR MIN TEMP:  63; 6HR MAX TEMP:  75;

FARGO          CLEAR     62  58  86 N7        29.92R
WAHPETON ARPT  PTCLDY    61  57  88 NW6       29.93R
$$

 ***** WEATHER ACROSS CENTRAL AND WESTERN NORTH DAKOTA  *****

CITY           SKY/WX    TMP DP  RH WIND       PRES   REMARKS
BISMARCK       CLOUDY    71  65  81 NE8       29.94R
6HR MIN TEMP:  71; 6HR MAX TEMP:  90;

MINOT          CLOUDY    70  62  76 S8        29.96R
6HR MIN TEMP:  68; 6HR MAX TEMP:  86;

JAMESTOWN      CLOUDY    66  61  84 NE5       29.96R
6HR MIN TEMP:  65; 6HR MAX TEMP:  79;

MINOT AFB      CLOUDY    68  68  99 S6        29.96S
GARRISON         N/A     73  64  73 E5        29.95R
WILLISTON      CLOUDY    70  55  59 NE8       29.98F HAZE
6HR MIN TEMP:  71; 6HR MAX TEMP:  91;

DICKINSON      CLOUDY    73  63  70 NE9       29.95S
6HR MIN TEMP:  72; 6HR MAX TEMP:  90;

HETTINGER      MOCLDY    62  59  90 W6        29.95S
6HR MIN TEMP:  62; 6HR MAX TEMP:  88;

$$

 *****  OTHER AIRPORT OBSERVATIONS IN OUR AREA  *****

CITY           SKY/WX    TMP DP  RH WIND       PRES   REMARKS
WALHALLA       FAIR      59  59 100 MISG      29.97R FOG
GRAFTON AIRPOR FAIR      59  59 100 NW6       29.96R
VALLEY CITY AR CLOUDY    64  64 100 NE6       29.96R
CANDO          CLOUDY    61  59  94 NE5       30.00R
CAVALIER APRT  FAIR      63  59  88 N5        29.96R
GWINNER        NOT AVBL
SHEYENNE NWR     N/A     64  61  91 N2        29.95
ROLLA          FAIR      59  59 100 N3        30.02R
 ***** THE ABOVE OBSERVATIONS ARE NON NWS ARE NOT QUALITY
       CONTROLLED AND MAY MIS-REPORT RAIN FOR SNOW...
$$

  *****  WEATHER ACROSS NORTHERN MINNESOTA  *****

CITY           SKY/WX    TMP DP  RH WIND       PRES   REMARKS
FLAG ISLAND    CLEAR     63  55  77 E5        29.95S
WARROAD        CLEAR     64  59  82 NE12      29.95R
ROSEAU         CLEAR     61  55  82 NE5       29.95R
HALLOCK        CLEAR     57  55  94 N5        29.94R
THF RVR FALLS  PTCLDY    61  57  88 N3        29.94S
6HR MIN TEMP:  61; 6HR MAX TEMP:  73;

BAUDETTE       CLEAR     60  54  80 NE7       29.94R
6HR MIN TEMP:  60; 6HR MAX TEMP:  71;

WASKISH        CLEAR     61  55  82 NE3       29.94R
CROOKSTON      CLEAR     61  59  94 NE3       29.94R
$$
  *****  WEATHER ACROSS CENTRAL AND WEST MINNESOTA  *****

CITY           SKY/WX    TMP DP  RH WIND       PRES   REMARKS
FOSSTON        PTCLDY    55  52  88 CALM      29.94S
BEMIDJI        CLEAR     54  52  94 CALM      29.93R
PARK RAPIDS    CLEAR     65  57  75 NE3       29.92S
6HR MIN TEMP:  65; 6HR MAX TEMP:  78;

ELBOW LAKE     FAIR      63  63  99 NW6       29.91R
6HR MIN TEMP:  63; 6HR MAX TEMP:  73;

WADENA         CLEAR     61  57  88 N3        29.91S
DETROIT LAKES  CLEAR     63  59  88 NE3       29.93F
MOORHEAD       CLEAR     61  59  94 N6        29.93R
FERGUS FALLS   PTCLDY    61  61 100 W3        29.92R
MORRIS MN      CLEAR     64  63  94 NW6       29.90S
STAPLES        CLEAR     61  57  88 N3        29.91R
$$
  *****  WEATHER ELSEWHERE ACROSS MINNESOTA  *****

CITY           SKY/WX    TMP DP  RH WIND       PRES   REMARKS
DULUTH         MOCLDY    64  57  78 NE6       29.87R
6HR MIN TEMP:  62; 6HR MAX TEMP:  74;

INTRNTL FALLS  CLEAR     59  52  77 E9        29.94R
6HR MIN TEMP:  59; 6HR MAX TEMP:  71;

ELY            PTCLDY    57  54  88 N3        29.91R
CLOQUET        MOCLDY    61  55  82 N6        29.88S
WHEATON        PTCLDY    63  61  94 NW5       29.93S
BRAINERD       CLEAR     65  57  75 NE10      29.90R
6HR MIN TEMP:  65; 6HR MAX TEMP:  78;

HIBBING        CLEAR     58  54  86 N7        29.90R
6HR MIN TEMP:  55; 6HR MAX TEMP:  73;

ALEXANDRIA     CLEAR     66  63  90 N7        29.92R
6HR MIN TEMP:  66; 6HR MAX TEMP:  75;

SAINT CLOUD    CLEAR     63  58  83 N5        29.87R
6HR MIN TEMP:  63; 6HR MAX TEMP:  80; 6HR PCP:  0.04;

MINNEAPOLIS    PTCLDY    65  63  93 CALM      29.84S
6HR MIN TEMP:  65; 6HR MAX TEMP:  81; 6HR PCP:  0.11;

$$

  *****  WEATHER ACROSS SOUTH DAKOTA  *****

CITY           SKY/WX    TMP DP  RH WIND       PRES   REMARKS
SIOUX FALLS    CLEAR     68  63  84 CALM      29.92S
6HR MIN TEMP:  67; 6HR MAX TEMP:  81;

BROOKINGS      PTCLDY    63  57  82 CALM      29.95S
WATERTOWN      MOCLDY    63  59  87 NE6       29.93F
6HR MIN TEMP:  62; 6HR MAX TEMP:  79;

HURON          PTCLDY    71  63  75 E6        29.91S
6HR MIN TEMP:  70; 6HR MAX TEMP:  85; 6HR PCP: TRACE;

SISSETON         N/A     63  60  90 N5        29.91F
ABERDEEN       PTCLDY    66  62  87 E3        29.92S
6HR MIN TEMP:  66; 6HR MAX TEMP:  85;

MITCHELL       PTCLDY    73  63  70 CALM      29.91F
PIERRE         LGT RAIN  72  61  68 E3        29.91S
6HR MIN TEMP:  70; 6HR MAX TEMP:  89; 6HR PCP: TRACE;

MOBRIDGE       MOCLDY    73  65  75 E9        29.91R
RAPID CITY     PTCLDY    66  59  78 W6        30.02F
6HR MIN TEMP:  66; 6HR MAX TEMP:  85; 6HR PCP: TRACE;

$$

  *****  SOME WEATHER IN NEARBY STATES *****

CITY           SKY/WX    TMP DP  RH WIND       PRES   REMARKS
GLASGOW MT     NOT AVBL
GREAT FALLS MT LGT RAIN  70  59  68 S18       30.00F
6HR MIN TEMP:  68; 6HR MAX TEMP:  95; 6HR PCP:  0.04;

CHEYENNE WY    CLEAR     60  48  64 W12       30.27F
6HR MIN TEMP:  59; 6HR MAX TEMP:  83;

SCOTTSBLUFF NE CLEAR     67  56  67 CALM      30.12S
6HR MIN TEMP:  66; 6HR MAX TEMP:  87;

OMAHA NE       CLOUDY    70  63  78 CALM      29.92R
6HR MIN TEMP:  70; 6HR MAX TEMP:  83;

DES MOINES IA  CLOUDY    70  63  78 W5        29.86F
6HR MIN TEMP:  70; 6HR MAX TEMP:  80;

DAVENPORT IA   CLOUDY    65  63  93 CALM      29.81F
6HR MIN TEMP:  65; 6HR MAX TEMP:  75; 6HR PCP:  0.54;

CHICAGO IL     LGT RAIN  66  64  93 S3        29.77F
6HR MIN TEMP:  64; 6HR MAX TEMP:  70; 6HR PCP:  0.05;

EAU CLAIRE WI  PTCLDY    56  55  97 SW5       29.83S FOG
6HR MIN TEMP:  56; 6HR MAX TEMP:  62;

LA CROSSE WI   CLEAR     62  60  93 NW3       29.82F
6HR MIN TEMP:  61; 6HR MAX TEMP:  66; 6HR PCP:  0.03;

$$

  *****  SOME NATIONAL WEATHER *****

CITY           SKY/WX    TMP DP  RH WIND       PRES   REMARKS
LA GUARDIA NY  PTCLDY    72  57  59 S8        29.95R
6HR MIN TEMP:  72; 6HR MAX TEMP:  77;

RALEIGH NC     PTCLDY    73  65  75 CALM      29.94F
6HR MIN TEMP:  70; 6HR MAX TEMP:  82;

ATLANTA GA     MOCLDY    73  64  73 SW5       30.02S
6HR MIN TEMP:  73; 6HR MAX TEMP:  82;

NEW ORLEANS LA MOCLDY    80  74  81 W9        30.05R
6HR MIN TEMP:  79; 6HR MAX TEMP:  87;

OKLAHOMA CITY  PTCLDY    70  65  84 S7        30.02R
6HR MIN TEMP:  69; 6HR MAX TEMP:  85; 6HR PCP: TRACE;

ALBUQUERQUE NM MOCLDY    75  48  38 E20       30.22R
6HR MIN TEMP:  75; 6HR MAX TEMP:  90; 6HR PCP: TRACE;

SALT LAKE CITY MOCLDY    84  53  34 S5        30.01S
6HR MIN TEMP:  84; 6HR MAX TEMP: 104;

LOS ANGELES CA PTCLDY    67  60  78 W7        29.92R
6HR MIN TEMP:  67; 6HR MAX TEMP:  71;

BOISE ID       MOCLDY    87  53  31 CALM      29.93R



USA.gov is the U.S. government's official web portal to all federal, state and local government web resources and services.